星链-11085 [DTC] (STARLINK-11085 [DTC] )

导读

STARLINK-11085是美国太空探索技术公司(SpaceX)研发运营的星链(Starlink)卫星,于2024年4月7日发射入轨,属于星链巨型低轨互联网星座的一员。该卫星运行在近地轨道,轨道倾角约53度,近地点约408公里,远地点约414公里,目前仍在轨工作。它将和其他星链卫星一同为全球提供高速低延迟的卫星互联网接入服务,扩展星链网络的覆盖与服务能力。

基本信息
目录编号:
59425
目录名称:
STARLINK-11085
国际标识:
2024-065E
轨道中心:
EARTH
卫星名称:
星链-11085 [DTC]
卫星全名:
星链-11085 [DTC] (STARLINK-11085 [DTC] )
卫星状态:
在轨 (已飞行887 天)
发射日期:
2024-04-07 UTC
国别 :
美国 (US)
星等 :
--
轨道信息
数据来源 国际轨道数据
星历时间: 2026-09-10T15:50:03+0800
21小时前
查看轨道信息
半长轴: 6737.869km
偏心率: 0.0001098
轨道倾角: 53.158°
近地点辐角 65.179°
升交点赤经 263.598°
平近点角 294.934°
近地点: 358.992km
远地点: 360.472km
周期: 91.737分钟
每日圈数: 15.697084
详细信息
固有亮度:
5
最大亮度:
0.5
卫星平台:
Starlink v2.0 mini
覆盖范围:
全球
运营商:
太空探索技术公司
运营商所在国:
美国
制造商(研发单位):
太空探索技术公司
制造商所在国:
美国
使用方式:
暂无
卫星简介
星链(Starlink)计划是由太空探索技术公司(SpaceX)提出的一个巨型低轨卫星互联网星座项目,计划在2019年至2024年间在太空搭建由约1.2万颗卫星组成的“星链”网络,其中1584颗将部署在地球上空550千米处的近地轨道,并从2020年开始工作。该卫星仍在工作。
2D轨道图
3D轨道图
轨道高度分析图
轨道倾角分析图
轨道综合分析图
查看轨道综合分析图
与全量物体交会距离演化趋势
与全量物体交会风险概率演化趋势